﻿_id,日時,平均風速(m/s),平均風向,最大瞬間風速(m/s),最大風速時風向,気温(℃),湿度(%),10分間移動積算雨量(mm),1時間移動積算雨量(mm),日雨量(mm),累計雨量(mm)
1,2021-01-25T00:00:00,3.3,北,4.9,北北西,7.6,82.1,0,0,6.5,25
2,2021-01-25T00:01:00,3.2,北,4.9,北北西,7.6,82.1,0,0,0,25
3,2021-01-25T00:02:00,3.2,北,4.9,北北西,7.6,81.9,0,0,0,25
4,2021-01-25T00:03:00,3.1,北,4.9,北北西,7.6,81.7,0,0,0,25
5,2021-01-25T00:04:00,3,北,4.9,北北西,7.6,81.6,0,0,0,25
6,2021-01-25T00:05:00,3,北,4.9,北北西,7.6,81.8,0,0,0,25
7,2021-01-25T00:06:00,3,北,4.5,北北西,7.7,81.7,0,0,0,25
8,2021-01-25T00:07:00,2.9,北,4.2,北,7.7,81.3,0,0,0,25
9,2021-01-25T00:08:00,3,北,4.2,北,7.7,81,0,0,0,25
10,2021-01-25T00:09:00,3.1,北,4.2,北,7.6,80.8,0,0,0,25
11,2021-01-25T00:10:00,3.1,北,4.2,北,7.7,80.8,0,0,0,25
12,2021-01-25T00:11:00,3.1,北,4.2,北,7.6,80.9,0,0,0,25
13,2021-01-25T00:12:00,3.2,北,5.3,北,7.6,80.9,0,0,0,25
14,2021-01-25T00:13:00,3.4,北,5.3,北,7.6,80.9,0,0,0,25
15,2021-01-25T00:14:00,3.5,北,5.3,北,7.6,81,0,0,0,25
16,2021-01-25T00:15:00,3.5,北,5.3,北,7.6,81.2,0,0,0,25
17,2021-01-25T00:16:00,3.6,北,5.3,北,7.6,81.3,0,0,0,25
18,2021-01-25T00:17:00,3.6,北,5.3,北,7.6,81.3,0,0,0,25
19,2021-01-25T00:18:00,3.7,北,5.3,北,7.6,81.1,0,0,0,25
20,2021-01-25T00:19:00,3.8,北,5.3,北,7.6,81.2,0,0,0,25
21,2021-01-25T00:20:00,3.9,北,5.3,北,7.5,81.3,0,0,0,25
22,2021-01-25T00:21:00,3.9,北,5.3,北,7.6,81.5,0,0,0,25
23,2021-01-25T00:22:00,3.9,北,5.3,北,7.6,81.5,0,0,0,25
24,2021-01-25T00:23:00,4,北,5.7,北,7.6,81.5,0,0,0,25
25,2021-01-25T00:24:00,4,北,5.7,北,7.6,81.3,0,0,0,25
26,2021-01-25T00:25:00,4.1,北,5.9,北,7.6,81.2,0,0,0,25
27,2021-01-25T00:26:00,4.1,北,5.9,北,7.6,81.1,0,0,0,25
28,2021-01-25T00:27:00,4.1,北,5.9,北,7.6,81,0,0,0,25
29,2021-01-25T00:28:00,4.2,北,6,北,7.6,81,0,0,0,25
30,2021-01-25T00:29:00,4.3,北,6,北,7.6,80.9,0,0,0,25
31,2021-01-25T00:30:00,4.3,北,6,北,7.6,80.9,0,0,0,25
32,2021-01-25T00:31:00,4.5,北,6.4,北,7.6,81,0,0,0,25
33,2021-01-25T00:32:00,4.5,北,6.4,北,7.6,80.9,0,0,0,25
34,2021-01-25T00:33:00,4.5,北,6.4,北,7.6,80.8,0,0,0,25
35,2021-01-25T00:34:00,4.5,北,6.4,北,7.5,80.8,0,0,0,25
36,2021-01-25T00:35:00,4.6,北,6.6,北,7.6,80.9,0,0,0,25
37,2021-01-25T00:36:00,4.7,北,6.6,北,7.6,80.9,0,0,0,25
38,2021-01-25T00:37:00,4.8,北,6.6,北,7.6,80.8,0,0,0,25
39,2021-01-25T00:38:00,4.9,北,7,北北西,7.6,80.6,0,0,0,25
40,2021-01-25T00:39:00,4.9,北,7,北北西,7.6,80.5,0,0,0,25
41,2021-01-25T00:40:00,4.9,北,7,北北西,7.7,80.4,0,0,0,25
42,2021-01-25T00:41:00,4.9,北,7,北北西,7.6,80.2,0,0,0,25
43,2021-01-25T00:42:00,4.8,北,7,北北西,7.6,80.2,0,0,0,25
44,2021-01-25T00:43:00,4.9,北,7,北北西,7.6,80.2,0,0,0,25
45,2021-01-25T00:44:00,4.9,北,7,北北西,7.6,80.3,0,0,0,25
46,2021-01-25T00:45:00,4.8,北,7,北北西,7.6,80.4,0,0,0,25
47,2021-01-25T00:46:00,4.7,北,7,北北西,7.6,80.3,0,0,0,25
48,2021-01-25T00:47:00,4.6,北,7,北北西,7.6,80.3,0,0,0,25
49,2021-01-25T00:48:00,4.4,北,6.7,北,7.6,80.2,0,0,0,25
50,2021-01-25T00:49:00,4.3,北,6.7,北,7.6,80.2,0,0,0,25
51,2021-01-25T00:50:00,4.2,北,6.7,北,7.6,80.3,0,0,0,25
52,2021-01-25T00:51:00,4.2,北,6.7,北,7.6,80.3,0,0,0,25
53,2021-01-25T00:52:00,4.1,北,6.7,北,7.6,80.2,0,0,0,25
54,2021-01-25T00:53:00,4,北,6.7,北,7.6,80.1,0,0,0,25
55,2021-01-25T00:54:00,4,北,5.8,北北東,7.7,80.1,0,0,0,25
56,2021-01-25T00:55:00,3.9,北,5.8,北北東,7.6,80,0,0,0,25
57,2021-01-25T00:56:00,3.9,北,5.8,北北東,7.7,80.1,0,0,0,25
58,2021-01-25T00:57:00,3.8,北,5.8,北北東,7.7,80,0,0,0,25
59,2021-01-25T00:58:00,3.9,北,5.8,北北東,7.6,79.9,0,0,0,25
60,2021-01-25T00:59:00,4,北,5.8,北北東,7.7,79.9,0,0,0,25
61,2021-01-25T01:00:00,4,北,6.1,北,7.7,79.9,0,0,0,25
62,2021-01-25T01:01:00,4,北,6.1,北,7.7,79.8,0,0,0,25
63,2021-01-25T01:02:00,4.1,北,6.4,北,7.6,79.7,0,0,0,25
64,2021-01-25T01:03:00,4.1,北,6.4,北,7.6,79.8,0,0,0,25
65,2021-01-25T01:04:00,4.1,北,6.4,北,7.6,79.9,0,0,0,25
66,2021-01-25T01:05:00,4.1,北,6.4,北,7.6,80.2,0,0,0,25
67,2021-01-25T01:06:00,4.2,北,6.4,北,7.6,80.3,0,0,0,25
68,2021-01-25T01:07:00,4.4,北,8.5,北北東,7.6,80.4,0,0,0,25
69,2021-01-25T01:08:00,4.5,北,8.5,北北東,7.7,80.4,0,0,0,25
70,2021-01-25T01:09:00,4.6,北,8.5,北北東,7.7,80.2,0,0,0,25
71,2021-01-25T01:10:00,4.7,北,8.5,北北東,7.7,80.1,0,0,0,25
72,2021-01-25T01:11:00,4.8,北,8.5,北北東,7.7,80.1,0,0,0,25
73,2021-01-25T01:12:00,4.9,北,8.5,北北東,7.6,80,0,0,0,25
74,2021-01-25T01:13:00,4.9,北,8.5,北北東,7.6,80.1,0,0,0,25
75,2021-01-25T01:14:00,4.9,北,8.5,北北東,7.6,80.3,0,0,0,25
76,2021-01-25T01:15:00,4.9,北,8.5,北北東,7.5,80.5,0,0,0,25
77,2021-01-25T01:16:00,4.9,北,8.5,北北東,7.6,80.8,0,0,0,25
78,2021-01-25T01:17:00,4.6,北,7,北,7.6,80.8,0,0,0,25
79,2021-01-25T01:18:00,4.6,北,7,北,7.6,80.6,0,0,0,25
80,2021-01-25T01:19:00,4.6,北,7,北,7.6,80.6,0,0,0,25
81,2021-01-25T01:20:00,4.5,北,7,北,7.6,80.5,0,0,0,25
82,2021-01-25T01:21:00,4.4,北,7,北,7.6,80.6,0,0,0,25
83,2021-01-25T01:22:00,4.4,北,7,北,7.6,80.7,0,0,0,25
84,2021-01-25T01:23:00,4.3,北,6.1,北,7.6,80.8,0,0,0,25
85,2021-01-25T01:24:00,4.3,北,6.1,北,7.6,80.8,0,0,0,25
86,2021-01-25T01:25:00,4.4,北,6.1,北,7.6,81,0,0,0,25
87,2021-01-25T01:26:00,4.4,北,6.1,北,7.6,81.1,0,0,0,25
88,2021-01-25T01:27:00,4.4,北,6.1,北,7.5,81.1,0,0,0,25
89,2021-01-25T01:28:00,4.4,北,6.1,北,7.6,81.2,0,0,0,25
90,2021-01-25T01:29:00,4.3,北,5.7,北,7.5,81.3,0,0,0,25
91,2021-01-25T01:30:00,4.3,北,5.7,北,7.5,81.4,0,0,0,25
92,2021-01-25T01:31:00,4.4,北,5.8,北,7.6,81.5,0,0,0,25
93,2021-01-25T01:32:00,4.4,北,5.8,北,7.6,81.5,0,0,0,25
94,2021-01-25T01:33:00,4.4,北,5.8,北,7.7,81.2,0,0,0,25
95,2021-01-25T01:34:00,4.3,北,5.8,北,7.7,80.9,0,0,0,25
96,2021-01-25T01:35:00,4.2,北,5.8,北,7.6,80.6,0,0,0,25
97,2021-01-25T01:36:00,4.2,北,5.8,北,7.6,80.7,0,0,0,25
98,2021-01-25T01:37:00,4.1,北,5.8,北,7.6,80.7,0,0,0,25
99,2021-01-25T01:38:00,4.1,北,5.8,北,7.6,80.9,0,0,0,25
100,2021-01-25T01:39:00,4,北,5.8,北,7.6,80.9,0,0,0,25
101,2021-01-25T01:40:00,4,北,5.8,北,7.6,81,0,0,0,25
102,2021-01-25T01:41:00,3.9,北,5.7,北北西,7.7,81,0,0,0,25
103,2021-01-25T01:42:00,3.9,北,5.7,北北西,7.6,80.8,0,0,0,25
104,2021-01-25T01:43:00,3.8,北,5.7,北北西,7.6,80.8,0,0,0,25
105,2021-01-25T01:44:00,3.9,北,6.5,北北西,7.6,81,0,0,0,25
106,2021-01-25T01:45:00,4,北,6.5,北北西,7.6,81.1,0,0,0,25
107,2021-01-25T01:46:00,4.1,北,6.5,北北西,7.7,81.1,0,0,0,25
108,2021-01-25T01:47:00,4.1,北,6.5,北北西,7.6,81,0,0,0,25
109,2021-01-25T01:48:00,4.1,北,6.5,北北西,7.6,80.9,0,0,0,25
110,2021-01-25T01:49:00,4.2,北,6.5,北北西,7.5,81.2,0,0,0,25
111,2021-01-25T01:50:00,4.1,北,6.5,北北西,7.5,81.4,0,0,0,25
112,2021-01-25T01:51:00,4.2,北,6.5,北北西,7.5,81.6,0,0,0,25
113,2021-01-25T01:52:00,4.2,北,6.5,北北西,7.6,81.8,0,0,0,25
114,2021-01-25T01:53:00,4.3,北,6.5,北北西,7.5,81.8,0,0,0,25
115,2021-01-25T01:54:00,4.3,北,5.8,北,7.5,81.7,0,0,0,25
116,2021-01-25T01:55:00,4.3,北,5.8,北,7.6,81.7,0,0,0,25
117,2021-01-25T01:56:00,4.2,北,5.8,北,7.5,81.5,0,0,0,25
118,2021-01-25T01:57:00,4.2,北,5.8,北,7.5,81.5,0,0,0,25
119,2021-01-25T01:58:00,4.1,北,5.8,北,7.4,81.7,0,0,0,25
120,2021-01-25T01:59:00,4,北,5.8,北,7.4,82,0,0,0,25
121,2021-01-25T02:00:00,3.9,北,5.8,北,7.4,82.3,0,0,0,25
122,2021-01-25T02:01:00,3.8,北,5.8,北,7.5,82.5,0,0,0,25
123,2021-01-25T02:02:00,3.7,北,5.8,北,7.5,82.6,0,0,0,25
124,2021-01-25T02:03:00,3.7,北,5.8,北,7.6,82.3,0,0,0,25
125,2021-01-25T02:04:00,3.7,北,5.1,北北西,7.5,82,0,0,0,25
126,2021-01-25T02:05:00,3.6,北,5,北,7.6,81.8,0,0,0,25
127,2021-01-25T02:06:00,3.5,北,5,北,7.6,81.6,0,0,0,25
128,2021-01-25T02:07:00,3.4,北,5,北,7.6,81.5,0,0,0,25
129,2021-01-25T02:08:00,3.5,北,5,北,7.7,81.3,0,0,0,25
130,2021-01-25T02:09:00,3.5,北,5,北,7.7,81,0,0,0,25
131,2021-01-25T02:10:00,3.5,北,5,北,7.7,80.6,0,0,0,25
132,2021-01-25T02:11:00,3.4,北,5,北,7.7,80.2,0,0,0,25
133,2021-01-25T02:12:00,3.2,北,5,北,7.7,80.2,0,0,0,25
134,2021-01-25T02:13:00,3.1,北,5,北,7.6,80.1,0,0,0,25
135,2021-01-25T02:14:00,3,北,5,北,7.5,80.5,0,0,0,25
136,2021-01-25T02:15:00,3,北,5,北,7.6,80.8,0,0,0,25
137,2021-01-25T02:16:00,3,北,5,北,7.5,80.9,0,0,0,25
138,2021-01-25T02:17:00,3.1,北,5,北,7.6,81.1,0,0,0,25
139,2021-01-25T02:18:00,3,北,5,北,7.6,81,0,0,0,25
140,2021-01-25T02:19:00,3.1,北,5.5,北,7.6,80.9,0,0,0,25
141,2021-01-25T02:20:00,3.1,北北東,5.5,北,7.5,80.7,0,0,0,25
142,2021-01-25T02:21:00,3.1,北北東,5.5,北,7.5,80.8,0,0,0,25
143,2021-01-25T02:22:00,3.1,北北東,5.5,北,7.5,81,0,0,0,25
144,2021-01-25T02:23:00,3.1,北北東,5.5,北,7.5,81.2,0,0,0,25
145,2021-01-25T02:24:00,3.1,北北東,5.5,北,7.6,81.4,0,0,0,25
146,2021-01-25T02:25:00,3.2,北北東,5.5,北,7.6,81.4,0,0,0,25
147,2021-01-25T02:26:00,3.2,北北東,5.5,北,7.7,81.3,0,0,0,25
148,2021-01-25T02:27:00,3.3,北,5.5,北,7.7,80.8,0,0,0,25
149,2021-01-25T02:28:00,3.3,北,5.5,北,7.7,80.7,0,0,0,25
150,2021-01-25T02:29:00,3.2,北,4.8,北,7.7,80.4,0,0,0,25
151,2021-01-25T02:30:00,3.2,北,4.8,北,7.7,80.3,0,0,0,25
152,2021-01-25T02:31:00,3.3,北,4.8,北,7.7,80.3,0,0,0,25
153,2021-01-25T02:32:00,3.3,北,4.8,北,7.7,80.2,0,0,0,25
154,2021-01-25T02:33:00,3.4,北,4.8,北,7.8,80.1,0,0,0,25
155,2021-01-25T02:34:00,3.4,北,4.8,北,7.8,79.8,0,0,0,25
156,2021-01-25T02:35:00,3.2,北,4.8,北,7.8,79.5,0,0,0,25
157,2021-01-25T02:36:00,3.2,北,4.8,北,7.7,79.5,0,0,0,25
158,2021-01-25T02:37:00,3,北,4.8,北,7.8,79.6,0,0,0,25
159,2021-01-25T02:38:00,2.9,北,4.8,北,7.8,79.4,0,0,0,25
160,2021-01-25T02:39:00,2.9,北,4.8,北,7.9,79.2,0,0,0,25
161,2021-01-25T02:40:00,2.8,北,4.8,北,7.8,78.9,0,0,0,25
162,2021-01-25T02:41:00,2.7,北,4.8,北,7.8,78.8,0,0,0,25
163,2021-01-25T02:42:00,2.7,北,4.8,北,7.8,79,0,0,0,25
164,2021-01-25T02:43:00,2.7,北,4.4,北北西,7.9,79.1,0,0,0,25
165,2021-01-25T02:44:00,2.6,北北西,4.4,北北西,8,78.8,0,0,0,25
166,2021-01-25T02:45:00,2.6,北北西,4.4,北北西,7.9,78.3,0,0,0,25
167,2021-01-25T02:46:00,2.6,北北西,4.4,北北西,7.9,78.3,0,0,0,25
168,2021-01-25T02:47:00,2.6,北北西,4.4,北北西,7.9,78.3,0,0,0,25
169,2021-01-25T02:48:00,2.6,北北西,4.4,北北西,7.9,78.3,0,0,0,25
170,2021-01-25T02:49:00,2.6,北北西,4.6,北北西,8,78.3,0,0,0,25
171,2021-01-25T02:50:00,2.7,北北西,4.6,北北西,8,78,0,0,0,25
172,2021-01-25T02:51:00,2.7,北北西,4.6,北北西,7.9,77.8,0,0,0,25
173,2021-01-25T02:52:00,2.6,北北西,4.6,北北西,7.9,78,0,0,0,25
174,2021-01-25T02:53:00,2.6,北北西,4.6,北北西,7.8,78.4,0,0,0,25
175,2021-01-25T02:54:00,2.5,北,4.6,北北西,7.9,78.7,0,0,0,25
176,2021-01-25T02:55:00,2.4,北,4.6,北北西,7.9,78.6,0,0,0,25
177,2021-01-25T02:56:00,2.3,北,4.6,北北西,7.8,78.6,0,0,0,25
178,2021-01-25T02:57:00,2.3,北,4.6,北北西,7.8,78.9,0,0,0,25
179,2021-01-25T02:58:00,2.3,北,4.6,北北西,7.8,79.4,0,0,0,25
180,2021-01-25T02:59:00,2.2,北,4.2,北北西,7.7,79.5,0,0,0,25
181,2021-01-25T03:00:00,2.2,北,4.2,北北西,7.7,79.7,0,0,0,25
182,2021-01-25T03:01:00,2.3,北,4.2,北北西,7.7,80,0,0,0,25
183,2021-01-25T03:02:00,2.3,北,4.2,北北西,7.7,80.1,0,0,0,25
184,2021-01-25T03:03:00,2.3,北,4.2,北北西,7.8,80.2,0,0,0,25
185,2021-01-25T03:04:00,2.3,北,4.2,北北西,7.8,79.9,0,0,0,25
186,2021-01-25T03:05:00,2.3,北,4.2,北北西,7.7,79.5,0,0,0,25
187,2021-01-25T03:06:00,2.3,北北東,4.2,北北西,7.7,79.9,0,0,0,25
188,2021-01-25T03:07:00,2.4,北北東,4.4,北,7.7,80.2,0,0,0,25
189,2021-01-25T03:08:00,2.4,北北東,4.4,北,7.7,80.2,0,0,0,25
190,2021-01-25T03:09:00,2.4,北北東,4.4,北,7.7,80.1,0,0,0,25
191,2021-01-25T03:10:00,2.4,北,4.4,北,7.7,80,0,0,0,25
192,2021-01-25T03:11:00,2.4,北,4.4,北,7.7,79.8,0,0,0,25
193,2021-01-25T03:12:00,2.4,北,4.4,北,7.8,79.8,0,0,0,25
194,2021-01-25T03:13:00,2.4,北,4.4,北,7.9,79.4,0,0,0,25
195,2021-01-25T03:14:00,2.4,北,4.4,北,7.9,78.6,0,0,0,25
196,2021-01-25T03:15:00,2.4,北,4.4,北,7.9,78.1,0,0,0,25
197,2021-01-25T03:16:00,2.5,北,4.4,北,7.9,78,0,0,0,25
198,2021-01-25T03:17:00,2.5,北,4.5,北,8,77.8,0,0,0,25
199,2021-01-25T03:18:00,2.5,北,4.5,北,7.9,77.3,0,0,0,25
200,2021-01-25T03:19:00,2.6,北,4.5,北,7.9,77,0,0,0,25
201,2021-01-25T03:20:00,2.7,北,4.6,北,7.9,77,0,0,0,25
202,2021-01-25T03:21:00,2.8,北,4.6,北,8,77,0,0,0,25
203,2021-01-25T03:22:00,2.9,北,4.8,北北西,7.9,76.9,0,0,0,25
204,2021-01-25T03:23:00,2.9,北,4.8,北北西,7.9,77,0,0,0,25
205,2021-01-25T03:24:00,3.1,北,4.8,北北西,7.9,77,0,0,0,25
206,2021-01-25T03:25:00,3.2,北,4.8,北北西,7.9,77,0,0,0,25
207,2021-01-25T03:26:00,3.3,北,4.8,北北西,7.9,76.9,0,0,0,25
208,2021-01-25T03:27:00,3.3,北,5.4,北,7.9,76.8,0,0,0,25
209,2021-01-25T03:28:00,3.3,北,5.4,北,8,76.4,0,0,0,25
210,2021-01-25T03:29:00,3.5,北,5.5,北北東,7.9,76.2,0,0,0,25
211,2021-01-25T03:30:00,3.5,北,5.5,北北東,7.9,76.2,0,0,0,25
212,2021-01-25T03:31:00,3.4,北,5.5,北北東,7.9,76.1,0,0,0,25
213,2021-01-25T03:32:00,3.4,北,5.5,北北東,7.8,76.4,0,0,0,25
214,2021-01-25T03:33:00,3.4,北,5.5,北北東,7.8,76.7,0,0,0,25
215,2021-01-25T03:34:00,3.3,北,5.5,北北東,7.8,77,0,0,0,25
216,2021-01-25T03:35:00,3.3,北北東,5.5,北北東,7.8,77.3,0,0,0,25
217,2021-01-25T03:36:00,3.2,北北東,5.5,北北東,7.8,77.4,0,0,0,25
218,2021-01-25T03:37:00,3.1,北北東,5.5,北北東,7.8,77.3,0,0,0,25
219,2021-01-25T03:38:00,3,北北東,5.5,北北東,7.8,77.1,0,0,0,25
220,2021-01-25T03:39:00,2.8,北北東,4.7,北,7.8,76.9,0,0,0,25
221,2021-01-25T03:40:00,2.7,北北東,4.3,北,7.9,76.8,0,0,0,25
222,2021-01-25T03:41:00,2.8,北北東,4.3,北,7.9,76.4,0,0,0,25
223,2021-01-25T03:42:00,2.7,北北東,4.3,北,7.9,75.8,0,0,0,25
224,2021-01-25T03:43:00,2.7,北北東,4.3,北,7.8,75.6,0,0,0,25
225,2021-01-25T03:44:00,2.7,北,4.5,北,7.8,75.8,0,0,0,25
226,2021-01-25T03:45:00,2.8,北,4.9,北,7.9,75.8,0,0,0,25
227,2021-01-25T03:46:00,2.9,北,4.9,北,7.9,75.5,0,0,0,25
228,2021-01-25T03:47:00,2.9,北,4.9,北,7.9,75.4,0,0,0,25
229,2021-01-25T03:48:00,3,北,4.9,北,7.9,75.3,0,0,0,25
230,2021-01-25T03:49:00,3.1,北,4.9,北,7.8,75.2,0,0,0,25
231,2021-01-25T03:50:00,3.1,北,4.9,北,7.8,75.2,0,0,0,25
232,2021-01-25T03:51:00,3,北,4.9,北,7.8,75.2,0,0,0,25
233,2021-01-25T03:52:00,3.1,北,4.9,北,7.8,75.4,0,0,0,25
234,2021-01-25T03:53:00,3.1,北,4.9,北,7.7,75.6,0,0,0,25
235,2021-01-25T03:54:00,3.1,北,4.9,北,7.8,75.8,0,0,0,25
236,2021-01-25T03:55:00,3,北,4.5,北北西,7.8,75.9,0,0,0,25
237,2021-01-25T03:56:00,3,北,4.5,北北西,7.8,75.8,0,0,0,25
238,2021-01-25T03:57:00,3.1,北,4.5,北北西,7.8,75.7,0,0,0,25
239,2021-01-25T03:58:00,3,北,4.5,北北西,7.7,75.8,0,0,0,25
240,2021-01-25T03:59:00,3,北,4.5,北北西,7.7,76,0,0,0,25
241,2021-01-25T04:00:00,3.1,北,4.5,北北西,7.7,75.9,0,0,0,25
242,2021-01-25T04:01:00,3.1,北,4.5,北北西,7.7,76,0,0,0,25
243,2021-01-25T04:02:00,3.1,北,4.5,北北西,7.7,76.1,0,0,0,25
244,2021-01-25T04:03:00,3.2,北,4.5,北北西,7.7,76.1,0,0,0,25
245,2021-01-25T04:04:00,3.1,北,4.5,北北西,7.8,76,0,0,0,25
246,2021-01-25T04:05:00,3.1,北,4.4,北北西,7.7,75.7,0,0,0,25
247,2021-01-25T04:06:00,3.1,北,4.6,北,7.8,75.5,0,0,0,25
248,2021-01-25T04:07:00,3.1,北,4.6,北,7.7,75.3,0,0,0,25
249,2021-01-25T04:08:00,3.1,北,4.6,北,7.7,75.5,0,0,0,25
250,2021-01-25T04:09:00,3,北,4.6,北,7.7,75.7,0,0,0,25
